• Processing (Info)

  • MPEC 2005-E19 : 2005 EP1

    The following Minor Planet Electronic Circular may be linked-to from your own Web pages, but must not otherwise be redistributed electronically.

    A form allowing access to any MPEC is at the bottom of this page.


    Read MPEC 2005-E18 Read MPEC 2005-E20


    M.P.E.C. 2005-E19                                Issued 2005 Mar. 4, 15:18 UT
    
         The Minor Planet Electronic Circulars contain information on unusual
             minor planets and routine data on comets.  They are published
       on behalf of Commission 20 of the International Astronomical Union by the
              Minor Planet Center, Smithsonian Astrophysical Observatory,
                              Cambridge, MA 02138, U.S.A.
    
                      Supported in part by the Brinson Foundation
                 Prepared using the Tamkin Foundation Computer Network
    
                                  MPC@CFA.HARVARD.EDU
              URL http://cfa-www.harvard.edu/iau/mpc.html  ISSN 1523-6714
    
                                       2005 EP1
    
    Observations:
         K05E01P* C2005 03 03.29703 11 13 16.36 +10 35 54.6          18.6 R EE019703
         K05E01P  C2005 03 03.30504 11 13 06.36 +10 36 20.1          18.4 R EE019703
         K05E01P  C2005 03 03.31307 11 12 56.41 +10 36 47.0          18.4 R EE019703
         K05E01P  C2005 03 03.32122 11 12 46.11 +10 37 14.9          18.6 R EE019703
         K05E01P  C2005 03 03.41359 11 10 48.98 +10 42 20.6          18.4 R EE019703
         K05E01P  C2005 03 03.42429 11 10 35.39 +10 42 55.7          18.5 R EE019703
         K05E01P  C2005 03 03.43501 11 10 21.63 +10 43 31.1          18.5 R EE019703
         K05E01P  C2005 03 03.44575 11 10 07.69 +10 44 08.0          18.2 R EE019703
         K05E01P  C2005 03 04.20882 10 52 22.25 +11 29 48.1          18.8 V EE019H36
         K05E01P  C2005 03 04.21247 10 52 16.49 +11 30 02.8          18.2 V EE019H36
         K05E01P  C2005 03 04.24637 10 51 23.60 +11 32 24.8          19.1 R EE019651
         K05E01P  C2005 03 04.24902 10 51 19.32 +11 32 35.2          19.1 R EE019651
         K05E01P 3C2005 03 04.33736 10 48 53.79 +11 38 14.9                 EE019H06
         K05E01P  C2005 03 04.34398 10 48 43.26 +11 38 41.1          18.3 R EE019G96
         K05E01P 3C2005 03 04.34403 10 48 42.69 +11 38 40.0                 EE019H06
         K05E01P  C2005 03 04.35043 10 48 32.44 +11 39 06.1          18.8 R EE019G96
         K05E01P 3C2005 03 04.35080 10 48 31.42 +11 39 07.1                 EE019H06
         K05E01P  C2005 03 04.35686 10 48 21.79 +11 39 30.9          18.1 R EE019G96
         K05E01P  C2005 03 04.36326 10 48 11.07 +11 39 55.4          18.3 R EE019G96
         K05E01P 2C2005 03 04.38121 10 47 40.57 +11 41 02.8          18.1 R EE019H06
         K05E01P 2C2005 03 04.38734 10 47 30.21 +11 41 26.7          18.6 R EE019H06
         K05E01P 2C2005 03 04.39274 10 47 21.22 +11 41 46.8          18.5 R EE019H06
    
    Observer details:
    651 Grasslands Observatory, Tucson.  Observer J. E. McGaha.  0.62-m f/5.1
        Newtonian reflector + CCD.
    703 Catalina Sky Survey.  Observer R. Hill.  Measurers E. C. Beshore,
        C. M. Casey, E. J. Christensen, G. J. Garradd, R. E. Hill, S. M. Larson,
        R. H. McNaught.  0.68-m Schmidt + CCD.
    G96 Mt. Lemmon Survey.  Observer E. C. Beshore.  Measurers E. C. Beshore,
        C. M. Casey, E. J. Christensen, G. J. Garradd, R. E. Hill, S. M. Larson,
        R. H. McNaught.  1.5-m reflector + CCD.
    H06 New Mexico Skies Observatory.  Observers J. Sue, R. Hutsebaut.  0.30-m
        reflector + CCD.
    H36 Sandlot Observatory, Scranton.  Observer G. Hug.  0.3-m f/6
        Schmidt-Cassegrain + CCD.
    
    Orbital elements:
    2005 EP1
    Epoch 2005 Feb. 19.0 TT = JDT 2453420.5                 MPC
    M 281.64921              (2000.0)            P               Q
    n   1.17412477     Peri.  328.05749     +0.68066541     +0.72873641
    a   0.8898700      Node   344.39728     -0.59959021     +0.49526489
    e   0.7682778      Incl.   16.21033     -0.42093489     +0.47292275
    P   0.84           H   23.7           G   0.15
    From 22 observations 2005 Mar. 3-4.
    
    Ephemeris:
    2005 EP1                 a,e,i = 0.89, 0.77, 16                  q = 0.2062
    Date    TT    R. A. (2000) Decl.     Delta      r     Elong.  Phase     V
    2005 03 01    11 48.20   +08 53.4    0.118    1.105   165.0    13.4    20.1
    2005 03 02    11 35.40   +09 32.9    0.105    1.095   168.9    10.0    19.7
    2005 03 03    11 19.02   +10 20.6    0.093    1.084   173.2     6.2    19.2
    2005 03 04    10 57.63   +11 17.5    0.081    1.073   175.2     4.4    18.8
    2005 03 05    10 29.20   +12 23.5    0.071    1.061   169.6     9.7    18.7
    2005 03 06    09 51.11   +13 33.5    0.061    1.050   159.9    19.0    18.7
    2005 03 07    09 01.00   +14 31.6    0.054    1.038   147.0    31.4    18.8
    2005 03 08    07 59.37   +14 47.8    0.050    1.026   131.2    46.7    19.0
    2005 03 09    06 52.77   +13 56.4    0.050    1.014   114.2    63.2    19.5
    2005 03 10    05 51.39   +12 08.0    0.054    1.002    98.2    78.7    20.1
    2005 03 11    05 01.55   +10 00.9    0.061    0.990    84.9    91.6    20.8
    2005 03 12    04 23.61   +08 03.9    0.069    0.977    74.4   101.6    21.6
    2005 03 13    03 55.16   +06 26.6    0.080    0.965    66.3   109.4    22.3
    2005 03 14    03 33.60   +05 08.5    0.091    0.952    59.9   115.4    22.9
    2005 03 15    03 16.92   +04 06.1    0.103    0.939    54.7   120.2    23.5
    2005 03 16    03 03.72   +03 15.9    0.116    0.925    50.4   124.1    24.0
    2005 03 17    02 53.03   +02 34.9    0.129    0.912    46.7   127.4    24.5
    2005 03 18    02 44.20   +02 01.0    0.142    0.898    43.5   130.2    25.0
    2005 03 19    02 36.77   +01 32.7    0.155    0.884    40.7   132.7    25.4
    2005 03 20    02 30.40   +01 08.7    0.168    0.870    38.2   135.0    25.8
    2005 03 21    02 24.87   +00 48.1    0.182    0.855    35.8   137.0    26.1
    
    Timothy B. Spahr             (C) Copyright 2005 MPC           M.P.E.C. 2005-E19
    

    Read MPEC 2005-E18 Read MPEC 2005-E20


    MPEC number:

    Enter an MPEC number in one of the following forms:

    • 1997-B01 (the full form)
    • J97B01 (the packed version of the full form)
    • B01 (the abbreviated form)